Location: *
(35.2348°S, 91.3916°E)
Time: 19:48:17
(UTC+00:00)

CZ-4 R/B - Pass Details

Date: 23 October 2019
Orbit: 530 x 601 km, 97.8° (Epoch: 11 November)

Event Time Altitude Azimuth Distance (km) Brightness Sun altitude
Rises 13:09:42 0° 172° (S) 2,752 5.1 -11.2°
Reaches altitude 10° 13:11:50 10° 174° (S) 1,860 4.2 -11.6°
Maximum altitude 13:15:50 68° 256° (WSW) 615 1.8 -12.4°
Drops below altitude 10° 13:19:52 10° 339° (NNW) 1,874 4.0 -13.1°
Sets 13:22:01 0° 341° (NNW) 2,776 4.9 -13.5°
